SWA163 KSAN-KSFO

Flight info

Callsign SWA163
Flight time 1h 4m
Altitude 36000
Route PADRZ2 IKAYE RIZIN SPLNT STOKD SERFR SERFR4
Aircraft B738/M-SDE2E3FGHIRWXY/LB1

Departure

Time 2026-05-06 03:12
Airport San Diego International Airport (KSAN)

Arrival

Time 2026-05-06 04:16
Airport San Francisco International Airport (KSFO)
Time Latitude Longitude Altitude Speed Heading
2026-05-06 02:31 32.73376 -117.19815 24 ft 0 kts 197°
2026-05-06 03:01 32.73383 -117.19812 19 ft 4 kts 194°
2026-05-06 03:02 32.73410 -117.19807 29 ft 4 kts 180°
2026-05-06 03:02 32.73436 -117.19810 29 ft 4 kts 160°
2026-05-06 03:02 32.73458 -117.19825 27 ft 4 kts 124°
2026-05-06 03:02 32.73464 -117.19836 27 ft 0 kts 107°
2026-05-06 03:06 32.73455 -117.19801 26 ft 7 kts 106°
2026-05-06 03:06 32.73440 -117.19739 27 ft 11 kts 105°
2026-05-06 03:06 32.73412 -117.19623 27 ft 17 kts 105°
2026-05-06 03:07 32.73378 -117.19484 27 ft 18 kts 106°
2026-05-06 03:07 32.73341 -117.19332 25 ft 20 kts 106°
2026-05-06 03:07 32.73303 -117.19176 23 ft 19 kts 106°
2026-05-06 03:07 32.73267 -117.19025 26 ft 19 kts 105°
2026-05-06 03:08 32.73232 -117.18879 25 ft 18 kts 107°
2026-05-06 03:08 32.73196 -117.18736 27 ft 19 kts 105°
2026-05-06 03:08 32.73158 -117.18575 27 ft 21 kts 106°
2026-05-06 03:08 32.73117 -117.18410 23 ft 21 kts 106°
2026-05-06 03:09 32.73079 -117.18249 24 ft 20 kts 105°
2026-05-06 03:09 32.73041 -117.18094 21 ft 19 kts 106°
2026-05-06 03:09 32.73004 -117.17944 19 ft 19 kts 106°
2026-05-06 03:09 32.72969 -117.17798 17 ft 18 kts 106°
2026-05-06 03:10 32.72949 -117.17708 18 ft 8 kts 98°
2026-05-06 03:10 32.72952 -117.17676 19 ft 0 kts 73°
2026-05-06 03:10 32.72954 -117.17666 19 ft 3 kts 73°
2026-05-06 03:10 32.72964 -117.17630 20 ft 9 kts 69°
2026-05-06 03:11 32.73016 -117.17597 21 ft 11 kts 320°
2026-05-06 03:11 32.73046 -117.17691 20 ft 18 kts 287°
2026-05-06 03:11 32.73170 -117.18203 23 ft 109 kts 286°
2026-05-06 03:11 32.73465 -117.19364 124 ft 176 kts 288°
2026-05-06 03:12 32.73850 -117.20829 1112 ft 187 kts 288°
2026-05-06 03:12 32.74396 -117.22193 2435 ft 181 kts 305°
2026-05-06 03:12 32.74886 -117.22993 3267 ft 180 kts 304°
2026-05-06 03:12 32.75601 -117.24229 4393 ft 187 kts 304°
2026-05-06 03:13 32.76689 -117.26132 4844 ft 232 kts 304°
2026-05-06 03:13 32.77323 -117.27242 5088 ft 248 kts 304°
2026-05-06 03:13 32.78313 -117.28980 5790 ft 258 kts 304°
2026-05-06 03:13 32.79335 -117.30775 6561 ft 265 kts 304°
2026-05-06 03:14 32.80399 -117.32580 7425 ft 266 kts 307°
2026-05-06 03:14 32.81531 -117.34345 8230 ft 272 kts 308°
2026-05-06 03:14 32.82697 -117.36131 9084 ft 274 kts 309°
2026-05-06 03:14 32.83884 -117.37948 9865 ft 281 kts 309°
2026-05-06 03:15 32.85092 -117.39807 10473 ft 292 kts 309°
2026-05-06 03:15 32.86366 -117.41772 10666 ft 316 kts 309°
2026-05-06 03:15 32.87743 -117.43904 11088 ft 330 kts 308°
2026-05-06 03:15 32.89158 -117.46101 11729 ft 337 kts 308°
2026-05-06 03:16 32.90585 -117.48319 12522 ft 339 kts 308°
2026-05-06 03:16 32.92030 -117.50568 13237 ft 344 kts 308°
2026-05-06 03:16 32.93493 -117.52845 13981 ft 348 kts 308°
2026-05-06 03:16 32.94971 -117.55146 14629 ft 350 kts 308°
2026-05-06 03:17 32.96457 -117.57464 14922 ft 351 kts 308°
2026-05-06 03:17 32.97939 -117.59776 14961 ft 352 kts 308°
2026-05-06 03:17 32.99430 -117.62104 14995 ft 356 kts 308°
2026-05-06 03:17 33.00946 -117.64473 15580 ft 358 kts 308°
2026-05-06 03:18 33.02434 -117.66799 16356 ft 359 kts 308°
2026-05-06 03:18 33.03962 -117.69187 16919 ft 365 kts 308°
2026-05-06 03:18 33.05512 -117.71613 17577 ft 369 kts 308°
2026-05-06 03:18 33.07170 -117.73945 18201 ft 371 kts 317°
2026-05-06 03:19 33.09137 -117.75968 18781 ft 374 kts 321°
2026-05-06 03:19 33.11159 -117.77929 19410 ft 375 kts 321°
2026-05-06 03:19 33.13186 -117.79910 19968 ft 378 kts 321°
2026-05-06 03:19 33.15208 -117.81931 20574 ft 380 kts 321°
2026-05-06 03:20 33.19269 -117.86065 21632 ft 387 kts 320°
2026-05-06 03:20 33.21254 -117.88248 22226 ft 389 kts 317°
2026-05-06 03:20 33.23184 -117.90527 22744 ft 392 kts 316°
2026-05-06 03:21 33.25111 -117.92860 23249 ft 396 kts 315°
2026-05-06 03:21 33.27045 -117.95214 23721 ft 399 kts 316°
2026-05-06 03:21 33.29001 -117.97587 24119 ft 402 kts 316°
2026-05-06 03:21 33.30975 -117.99971 24538 ft 404 kts 316°
2026-05-06 03:22 33.32962 -118.02362 24976 ft 406 kts 316°
2026-05-06 03:22 33.34957 -118.04755 25377 ft 409 kts 316°
2026-05-06 03:22 33.36827 -118.06995 25759 ft 411 kts 316°
2026-05-06 03:22 33.38857 -118.09428 26151 ft 413 kts 316°
2026-05-06 03:23 33.40869 -118.11839 26506 ft 416 kts 316°
2026-05-06 03:23 33.42921 -118.14298 26876 ft 419 kts 316°
2026-05-06 03:23 33.44984 -118.16774 27259 ft 421 kts 316°
2026-05-06 03:23 33.47059 -118.19265 27611 ft 424 kts 316°
2026-05-06 03:24 33.49150 -118.21776 27929 ft 427 kts 316°
2026-05-06 03:24 33.51256 -118.24309 28246 ft 430 kts 316°
2026-05-06 03:24 33.53376 -118.26860 28554 ft 433 kts 316°
2026-05-06 03:24 33.55512 -118.29431 28859 ft 436 kts 317°
2026-05-06 03:25 33.57658 -118.32018 29163 ft 439 kts 317°
2026-05-06 03:25 33.59819 -118.34624 29455 ft 442 kts 317°
2026-05-06 03:25 33.61994 -118.37248 29739 ft 445 kts 317°
2026-05-06 03:25 33.64182 -118.39891 30018 ft 447 kts 317°
2026-05-06 03:26 33.66380 -118.42549 30289 ft 449 kts 317°
2026-05-06 03:26 33.68092 -118.44621 30561 ft 448 kts 317°
2026-05-06 03:26 33.70280 -118.47271 30966 ft 446 kts 317°
2026-05-06 03:26 33.72457 -118.49910 31354 ft 444 kts 318°
2026-05-06 03:27 33.74629 -118.52544 31683 ft 444 kts 318°
2026-05-06 03:27 33.76804 -118.55183 32008 ft 443 kts 318°
2026-05-06 03:27 33.78942 -118.57779 32351 ft 442 kts 318°
2026-05-06 03:27 33.81129 -118.60435 32734 ft 440 kts 318°
2026-05-06 03:28 33.83245 -118.63010 33105 ft 438 kts 317°
2026-05-06 03:28 33.85385 -118.65614 33480 ft 436 kts 317°
2026-05-06 03:28 33.87513 -118.68205 33849 ft 434 kts 317°
2026-05-06 03:28 33.89632 -118.70788 34189 ft 432 kts 317°
2026-05-06 03:29 33.91744 -118.73364 34437 ft 432 kts 317°
2026-05-06 03:29 33.93855 -118.75940 34641 ft 433 kts 317°
2026-05-06 03:29 33.95970 -118.78522 34844 ft 433 kts 317°
2026-05-06 03:29 33.98085 -118.81108 35078 ft 433 kts 317°
2026-05-06 03:30 34.00198 -118.83694 35295 ft 433 kts 317°
2026-05-06 03:30 34.02315 -118.86286 35498 ft 433 kts 317°
2026-05-06 03:30 34.04426 -118.88873 35712 ft 433 kts 317°
2026-05-06 03:30 34.06536 -118.91460 35942 ft 432 kts 317°
2026-05-06 03:31 34.10748 -118.96630 36037 ft 436 kts 317°
2026-05-06 03:31 34.14915 -119.01946 36026 ft 437 kts 309°
2026-05-06 03:32 34.18185 -119.08134 36034 ft 437 kts 305°
2026-05-06 03:32 34.21287 -119.14434 36034 ft 435 kts 305°
2026-05-06 03:33 34.24437 -119.20686 36028 ft 434 kts 306°
2026-05-06 03:33 34.27620 -119.26906 36038 ft 434 kts 306°
2026-05-06 03:34 34.30811 -119.33128 36033 ft 436 kts 307°
2026-05-06 03:34 34.34031 -119.39422 36037 ft 444 kts 307°
2026-05-06 03:35 34.37310 -119.45849 36034 ft 452 kts 306°
2026-05-06 03:35 34.40641 -119.52329 36017 ft 458 kts 309°
2026-05-06 03:36 34.44815 -119.58075 36023 ft 453 kts 320°
2026-05-06 03:36 34.49295 -119.63459 36035 ft 453 kts 320°
2026-05-06 03:37 34.53771 -119.68875 36022 ft 456 kts 320°
2026-05-06 03:37 34.58226 -119.74346 36012 ft 456 kts 320°
2026-05-06 03:38 34.62674 -119.79834 36020 ft 456 kts 320°
2026-05-06 03:38 34.66916 -119.85080 36043 ft 455 kts 320°
2026-05-06 03:39 34.71321 -119.90536 36043 ft 453 kts 321°
2026-05-06 03:39 34.75727 -119.96000 36067 ft 453 kts 321°
2026-05-06 03:40 34.80139 -120.01478 36072 ft 453 kts 321°
2026-05-06 03:40 34.84548 -120.06962 36077 ft 453 kts 321°
2026-05-06 03:41 34.88956 -120.12455 36073 ft 453 kts 321°
2026-05-06 03:41 34.93359 -120.17952 36063 ft 453 kts 321°
2026-05-06 03:42 34.97765 -120.23460 36076 ft 453 kts 321°
2026-05-06 03:42 35.02136 -120.28934 36080 ft 453 kts 321°
2026-05-06 03:43 35.06532 -120.34448 36076 ft 453 kts 321°
2026-05-06 03:43 35.10987 -120.39881 36078 ft 450 kts 323°
2026-05-06 03:44 35.15611 -120.45031 36079 ft 449 kts 324°
2026-05-06 03:44 35.20252 -120.50158 36067 ft 450 kts 324°
2026-05-06 03:45 35.24885 -120.55337 36063 ft 451 kts 324°
2026-05-06 03:45 35.29504 -120.60539 36058 ft 450 kts 324°
2026-05-06 03:46 35.34101 -120.65728 36069 ft 449 kts 324°
2026-05-06 03:46 35.38670 -120.70891 36082 ft 449 kts 323°
2026-05-06 03:47 35.43261 -120.76086 36080 ft 449 kts 323°
2026-05-06 03:47 35.47853 -120.81288 36077 ft 450 kts 324°
2026-05-06 03:48 35.52688 -120.86071 36087 ft 444 kts 329°
2026-05-06 03:48 35.57550 -120.90490 36056 ft 420 kts 330°
2026-05-06 03:49 35.62144 -120.94692 36049 ft 408 kts 330°
2026-05-06 03:49 35.64419 -120.96787 35891 ft 408 kts 330°
2026-05-06 03:49 35.66677 -120.98879 35636 ft 402 kts 330°
2026-05-06 03:50 35.68898 -121.00946 35239 ft 399 kts 330°
2026-05-06 03:50 35.71073 -121.02974 34885 ft 396 kts 330°
2026-05-06 03:50 35.73262 -121.05017 34520 ft 393 kts 331°
2026-05-06 03:50 35.75435 -121.07046 34143 ft 391 kts 331°
2026-05-06 03:51 35.77592 -121.09062 33740 ft 388 kts 331°
2026-05-06 03:51 35.79737 -121.11068 33342 ft 386 kts 331°
2026-05-06 03:51 35.81866 -121.13061 32955 ft 383 kts 331°
2026-05-06 03:51 35.83978 -121.15039 32580 ft 380 kts 331°
2026-05-06 03:52 35.86077 -121.17007 32211 ft 377 kts 331°
2026-05-06 03:52 35.88156 -121.18957 31863 ft 374 kts 331°
2026-05-06 03:52 35.90218 -121.20892 31506 ft 371 kts 331°
2026-05-06 03:52 35.92274 -121.22821 31123 ft 369 kts 331°
2026-05-06 03:53 35.94324 -121.24746 30915 ft 375 kts 331°
2026-05-06 03:53 35.96448 -121.26731 30700 ft 391 kts 330°
2026-05-06 03:53 35.98658 -121.28802 30482 ft 406 kts 330°
2026-05-06 03:53 36.00944 -121.30955 30261 ft 420 kts 329°
2026-05-06 03:54 36.03307 -121.33186 30000 ft 434 kts 329°
2026-05-06 03:54 36.05735 -121.35477 29750 ft 446 kts 329°
2026-05-06 03:54 36.08258 -121.37776 29464 ft 451 kts 332°
2026-05-06 03:54 36.10886 -121.39906 29169 ft 449 kts 334°
2026-05-06 03:55 36.13496 -121.41900 28723 ft 443 kts 335°
2026-05-06 03:55 36.16102 -121.43862 28225 ft 434 kts 335°
2026-05-06 03:55 36.18665 -121.45802 27650 ft 430 kts 334°
2026-05-06 03:55 36.21199 -121.47739 27089 ft 426 kts 334°
2026-05-06 03:56 36.23707 -121.49677 26557 ft 422 kts 334°
2026-05-06 03:56 36.26179 -121.51600 26027 ft 418 kts 333°
2026-05-06 03:56 36.28630 -121.53514 25502 ft 414 kts 333°
2026-05-06 03:56 36.31061 -121.55417 24984 ft 411 kts 333°
2026-05-06 03:57 36.33474 -121.57307 24459 ft 409 kts 333°
2026-05-06 03:57 36.35877 -121.59190 23906 ft 408 kts 333°
2026-05-06 03:57 36.38271 -121.61067 23293 ft 407 kts 333°
2026-05-06 03:57 36.40675 -121.62952 22512 ft 408 kts 332°
2026-05-06 03:58 36.43057 -121.64824 22132 ft 400 kts 332°
2026-05-06 03:58 36.45371 -121.66647 21950 ft 388 kts 332°
2026-05-06 03:58 36.47616 -121.68415 21773 ft 376 kts 332°
2026-05-06 03:58 36.49068 -121.69559 21660 ft 369 kts 332°
2026-05-06 03:59 36.51225 -121.71257 21213 ft 366 kts 332°
2026-05-06 03:59 36.53371 -121.72949 20775 ft 364 kts 332°
2026-05-06 03:59 36.55504 -121.74634 20347 ft 362 kts 332°
2026-05-06 03:59 36.57620 -121.76307 19915 ft 359 kts 332°
2026-05-06 04:00 36.59739 -121.77983 19217 ft 366 kts 331°
2026-05-06 04:00 36.61901 -121.79692 18638 ft 370 kts 331°
2026-05-06 04:00 36.64075 -121.81415 18061 ft 371 kts 331°
2026-05-06 04:00 36.66256 -121.83146 17513 ft 372 kts 331°
2026-05-06 04:01 36.68443 -121.84883 16998 ft 372 kts 331°
2026-05-06 04:01 36.70599 -121.86598 16773 ft 361 kts 331°
2026-05-06 04:01 36.72689 -121.88261 16500 ft 352 kts 331°
2026-05-06 04:01 36.74816 -121.89659 16203 ft 340 kts 345°
2026-05-06 04:02 36.77080 -121.90367 15853 ft 333 kts 350°
2026-05-06 04:02 36.79338 -121.90961 15445 ft 330 kts 351°
2026-05-06 04:02 36.81586 -121.91547 15050 ft 328 kts 351°
2026-05-06 04:02 36.83781 -121.92131 14663 ft 326 kts 351°
2026-05-06 04:03 36.86020 -121.92741 14272 ft 324 kts 350°
2026-05-06 04:03 36.88186 -121.93339 13885 ft 322 kts 350°
2026-05-06 04:03 36.90371 -121.93948 13448 ft 321 kts 350°
2026-05-06 04:03 36.92544 -121.94556 13027 ft 319 kts 350°
2026-05-06 04:04 36.94703 -121.95161 12627 ft 317 kts 350°
2026-05-06 04:04 36.96827 -121.95860 12231 ft 316 kts 346°
2026-05-06 04:04 36.98923 -121.96671 11842 ft 314 kts 345°
2026-05-06 04:04 37.01000 -121.97505 11454 ft 312 kts 345°
2026-05-06 04:05 37.03063 -121.98334 11071 ft 311 kts 345°
2026-05-06 04:05 37.05116 -121.99152 10698 ft 309 kts 345°
2026-05-06 04:05 37.07133 -121.99951 10554 ft 297 kts 345°
2026-05-06 04:05 37.09066 -122.00714 10409 ft 286 kts 345°
2026-05-06 04:06 37.10940 -122.01451 10282 ft 278 kts 346°
2026-05-06 04:06 37.12753 -122.02161 10167 ft 268 kts 346°
2026-05-06 04:06 37.14508 -122.02849 10055 ft 261 kts 346°
2026-05-06 04:06 37.16227 -122.03521 9802 ft 258 kts 346°
2026-05-06 04:07 37.17936 -122.04189 9543 ft 256 kts 346°
2026-05-06 04:07 37.19631 -122.04851 9265 ft 254 kts 345°
2026-05-06 04:07 37.21293 -122.05502 9005 ft 253 kts 345°
2026-05-06 04:07 37.22973 -122.06160 8731 ft 253 kts 345°
2026-05-06 04:08 37.24648 -122.06817 8451 ft 252 kts 345°
2026-05-06 04:08 37.26325 -122.07475 8190 ft 251 kts 345°
2026-05-06 04:08 37.27991 -122.08129 7884 ft 253 kts 344°
2026-05-06 04:08 37.29693 -122.08799 7573 ft 259 kts 344°
2026-05-06 04:09 37.31425 -122.09481 7241 ft 263 kts 344°
2026-05-06 04:09 37.33177 -122.10171 6902 ft 265 kts 343°
2026-05-06 04:09 37.34936 -122.10865 6552 ft 267 kts 343°
2026-05-06 04:09 37.36718 -122.11567 6171 ft 268 kts 343°
2026-05-06 04:10 37.38493 -122.12243 5815 ft 265 kts 345°
2026-05-06 04:10 37.40255 -122.12845 5481 ft 260 kts 346°
2026-05-06 04:10 37.41991 -122.13430 5167 ft 256 kts 345°
2026-05-06 04:10 37.43699 -122.14009 4860 ft 253 kts 345°
2026-05-06 04:11 37.45387 -122.14585 4536 ft 249 kts 345°
2026-05-06 04:11 37.47045 -122.15152 4232 ft 245 kts 344°
2026-05-06 04:11 37.48680 -122.15713 3931 ft 242 kts 343°
2026-05-06 04:11 37.50288 -122.16265 3631 ft 237 kts 343°
2026-05-06 04:12 37.51856 -122.16805 3356 ft 231 kts 342°
2026-05-06 04:12 37.53196 -122.17770 3108 ft 217 kts 308°
2026-05-06 04:12 37.54067 -122.19294 2874 ft 213 kts 304°
2026-05-06 04:12 37.54878 -122.20830 2599 ft 209 kts 300°
2026-05-06 04:13 37.55571 -122.22386 2326 ft 197 kts 297°
2026-05-06 04:13 37.56182 -122.23853 2081 ft 181 kts 296°
2026-05-06 04:13 37.56747 -122.25217 1853 ft 171 kts 296°
2026-05-06 04:13 37.57302 -122.26553 1656 ft 174 kts 296°
2026-05-06 04:14 37.57859 -122.27890 1426 ft 169 kts 296°
2026-05-06 04:14 37.58387 -122.29157 1207 ft 158 kts 296°
2026-05-06 04:14 37.58883 -122.30345 1016 ft 149 kts 296°
2026-05-06 04:14 37.59342 -122.31447 838 ft 138 kts 296°
2026-05-06 04:15 37.59784 -122.32506 629 ft 136 kts 296°
2026-05-06 04:15 37.60226 -122.33570 461 ft 138 kts 296°
2026-05-06 04:15 37.60677 -122.34643 304 ft 138 kts 295°
2026-05-06 04:15 37.61109 -122.35703 123 ft 135 kts 295°
2026-05-06 04:16 37.61526 -122.36685 21 ft 115 kts 298°
2026-05-06 04:16 37.61859 -122.37482 17 ft 95 kts 298°
2026-05-06 04:16 37.61992 -122.37808 21 ft 19 kts 287°
2026-05-06 04:16 37.61981 -122.37902 21 ft 6 kts 241°
2026-05-06 04:17 37.61953 -122.37938 20 ft 6 kts 207°
2026-05-06 04:17 37.61914 -122.37937 20 ft 6 kts 163°
2026-05-06 04:17 37.61877 -122.37912 19 ft 7 kts 149°
2026-05-06 04:17 37.61833 -122.37866 17 ft 7 kts 126°
2026-05-06 04:18 37.61811 -122.37807 17 ft 8 kts 112°
2026-05-06 04:18 37.61793 -122.37747 17 ft 7 kts 111°
2026-05-06 04:18 37.61774 -122.37684 18 ft 8 kts 111°
2026-05-06 04:18 37.61754 -122.37617 19 ft 11 kts 110°
2026-05-06 04:19 37.61725 -122.37526 19 ft 8 kts 113°
2026-05-06 04:19 37.61696 -122.37463 19 ft 11 kts 137°
2026-05-06 04:19 37.61594 -122.37465 20 ft 20 kts 209°
2026-05-06 04:19 37.61465 -122.37555 21 ft 21 kts 207°
2026-05-06 04:20 37.61351 -122.37637 19 ft 15 kts 218°
2026-05-06 04:20 37.61294 -122.37748 17 ft 13 kts 257°
2026-05-06 04:20 37.61309 -122.37858 16 ft 13 kts 295°
2026-05-06 04:20 37.61351 -122.37962 15 ft 13 kts 297°
2026-05-06 04:21 37.61390 -122.38055 14 ft 9 kts 297°
2026-05-06 04:21 37.61437 -122.38103 14 ft 9 kts 354°
2026-05-06 04:21 37.61494 -122.38078 14 ft 7 kts 28°
2026-05-06 04:21 37.61532 -122.38068 14 ft 7 kts 351°
2026-05-06 04:22 37.61568 -122.38109 13 ft 6 kts 305°
2026-05-06 04:22 37.61606 -122.38133 14 ft 6 kts 358°
2026-05-06 04:22 37.61644 -122.38129 15 ft 4 kts
2026-05-06 04:23 37.61660 -122.38127 15 ft 2 kts
2026-05-06 04:23 37.61661 -122.38127 15 ft 0 kts